[[{"header":{"parameterUnit":"m.s-1","parameterCategory":1,"la1":30.2991,"la2":30.254,"lo1":-89.0895,"lo2":-89.0444,"dy":0.0017,"dx":0.0017,"nx":28,"ny":28,"refTime":"2026-01-09T09:00:00:Z","depth":0,"parameterNumber":2,"parameterNumberName":"U-component_of_WINDS"},"data":[0,0,0,0,0,0,0,0,0,0,0,0,0,0,0,0,0,0,0,0,0,0,0,0,0,0,0,0,0,0,0,0,0,0,0,0,0,0,0,0,0,0,0,0,0,0,0,0,0,0,0,0,0,0,0,0,0,0,1.6985,1.6986,0,1.704,1.7041,1.7041,1.7036,1.7035,1.7034,1.7033,1.709,1.7092,1.7094,0,0,0,0,0,0,0,0,0,0,0,0,0,1.6876,1.6878,1.6985,1.6986,1.6986,1.704,1.7041,1.7042,1.7036,1.7035,1.7034,1.7033,1.7089,1.7092,1.7094,0,0,0,0,0,0,0,0,0,0,0,0,0,1.6927,1.6879,1.6985,1.699,1.6991,1.704,1.7041,1.7042,1.7036,1.7035,1.7033,1.7032,1.7088,1.7091,1.7095,1.7142,0,0,1.7105,1.7107,0,0,0,0,0,0,0,0,1.6924,1.6931,1.6989,1.699,1.6991,1.703,1.7023,1.7075,1.7036,1.7019,1.7033,1.7032,1.7071,1.7076,1.7089,1.7145,1.7147,1.7106,1.7108,1.7109,1.711,0,0,0,0,0,0,0,1.692,1.6928,1.7007,1.6989,1.6991,1.699,1.6996,1.7033,1.7051,1.702,1.702,1.7027,1.7071,1.7085,1.709,1.7148,1.7106,1.7109,1.7111,1.7112,1.7248,1.725,0,0,0,0,0,0,1.6916,1.6926,1.7005,1.7008,1.6954,1.6993,1.6999,1.7019,1.7051,1.7055,1.7028,1.7026,1.708,1.7086,1.7092,1.7151,1.7109,1.7113,1.7115,1.7247,1.7249,1.725,0,0,0,0,0,0,1.6913,1.6923,1.7003,1.6967,1.6977,1.6996,1.7018,1.702,1.7035,1.7057,1.706,1.7039,1.7079,1.7087,1.713,1.7153,1.7114,1.7117,1.7245,1.7247,1.7249,1.7269,0,0,0,0,0,0,1.691,1.6922,1.694,1.6967,1.6979,1.704,1.7019,1.7022,1.7041,1.7039,1.7068,1.7071,1.7079,1.7125,1.7134,1.7157,1.712,1.7243,1.7246,1.7249,1.7266,1.7271,1.7276,0,0,0,0,0,1.6906,1.6942,1.6941,1.695,1.7002,1.7041,1.7048,1.7056,1.7042,1.7061,1.7075,1.7071,1.7149,1.713,1.7139,1.7164,1.7242,1.7245,1.7248,1.7264,1.727,1.7276,0,0,0,0,0,0,1.6916,1.6946,1.6944,1.699,1.7013,1.704,1.7063,1.7062,1.7089,1.7086,1.7095,1.7102,1.7146,1.7159,1.7137,1.7213,1.7194,1.7199,1.7202,1.7208,1.7213,1.7209,1.7123,0,0,0,0,0,1.6924,1.6953,1.6978,1.7016,1.7028,1.7044,1.7061,1.7065,1.7089,1.7099,1.7117,1.714,1.7171,1.719,1.7219,1.7268,1.7275,1.729,1.7295,1.7299,1.7304,1.7332,1.734,1.7262,1.7262,1.7261,0,0,1.694,1.696,1.6978,1.7019,1.7037,1.7068,1.7052,1.7085,1.7108,1.7104,1.7146,1.716,1.7187,1.7234,1.7256,1.7247,1.7327,1.7303,1.7306,1.7309,1.7337,1.7344,1.735,1.7264,1.7263,1.7263,0,0,1.6985,1.7003,1.7037,1.7056,1.7084,1.7095,1.7103,1.7131,1.714,1.7183,1.7181,1.7209,1.726,1.728,1.7297,1.7352,1.7349,1.7361,1.7387,1.7414,1.7421,1.7426,1.7447,1.7454,1.7366,1.7366,1.7366,0,1.7002,1.7048,1.7055,1.7089,1.7108,1.7106,1.7142,1.716,1.7196,1.721,1.7199,1.7265,1.7283,1.7335,1.7349,1.7362,1.7373,1.7358,1.7419,1.7425,1.743,1.745,1.7457,1.7367,1.7367,1.7367,1.7367,0,1.7067,1.7099,1.7124,1.716,1.7181,1.7216,1.7229,1.725,1.7253,1.7265,1.731,1.7331,1.7366,1.7378,1.7381,1.7432,1.7425,1.7417,1.7398,1.7439,1.7457,1.7465,1.7369,1.7369,1.7368,1.7368,0,0,1.7119,1.716,1.7169,1.7186,1.7217,1.7243,1.7278,1.7311,1.733,1.7355,1.7386,1.743,1.7423,1.7442,1.7448,1.7472,1.7516,1.7461,1.7462,1.7471,1.7575,1.7581,1.759,1.7514,1.7516,1.7517,1.7573,0,1.7168,1.723,1.7239,1.7295,1.7325,1.7325,1.7356,1.7379,1.7392,1.742,1.7434,1.7466,1.7454,1.7465,1.749,1.7505,1.7537,1.7501,1.7543,1.7545,1.7537,1.7599,1.7606,1.7658,1.758,1.7581,1.7582,0,1.7233,1.7261,1.732,1.7349,1.7362,1.739,1.7422,1.7449,1.7476,1.7483,1.7506,1.7509,1.7546,1.7526,1.7578,1.7554,1.7572,1.7583,1.7585,1.7589,1.7566,1.7606,1.7674,1.7682,1.7594,1.7593,1.7592,0,1.7267,1.7319,1.7361,1.7376,1.741,1.743,1.7445,1.7471,1.7491,1.752,1.7533,1.7566,1.7584,1.7609,1.7621,1.7605,1.7673,1.7654,1.7681,1.7681,1.7696,1.7695,1.7768,1.7706,1.7706,1.7706,1.7706,0,1.7321,1.7357,1.7377,1.7403,1.7444,1.7454,1.7495,1.751,1.7533,1.7562,1.7564,1.7592,1.7605,1.7636,1.7645,1.7688,1.7696,1.7704,1.7706,1.7704,1.7703,1.7716,1.7713,1.7708,1.7708,1.7707,1.7707,0,1.7366,1.738,1.7426,1.7456,1.7464,1.7493,1.7519,1.7545,1.7557,1.7595,1.7604,1.7625,1.766,1.7675,1.7718,1.7725,1.7774,1.7773,1.7765,1.7766,1.7794,1.7791,1.7878,1.7891,1.782,1.7821,1.7821,0,1.74,1.7427,1.746,1.748,1.7497,1.7529,1.755,1.7561,1.7583,1.7617,1.7639,1.7675,1.7704,1.7761,1.778,1.7814,1.7814,1.7843,1.7819,1.7817,1.7816,1.7815,1.7818,1.7847,1.7848,1.7848,1.7849,0,1.7459,1.7465,1.7495,1.7528,1.7553,1.758,1.7606,1.7622,1.7638,1.7663,1.77,1.7723,1.7768,1.7804,1.7839,1.7855,1.7855,1.7856,1.7864,1.7863,1.7858,1.7862,1.7778,1.7854,1.7853,1.7853,1.7853,1.7853,1.75,1.7525,1.7553,1.7587,1.7608,1.7632,1.7658,1.7675,1.7706,1.7744,1.7749,1.7789,1.7816,1.7864,1.7882,1.7913,1.7906,1.7918,1.7921,1.7924,1.7927,1.7852,1.792,1.792,1.792,1.7919,1.7919,0,1.756,1.7578,1.7609,1.7646,1.7673,1.767,1.77,1.7723,1.7758,1.7783,1.7813,1.7856,1.7891,1.7913,1.7949,1.797,1.7971,1.7979,1.7978,1.7982,1.793,1.792,1.7978,1.7978,1.7978,1.7978,1.7978,1.7978,1.7594,1.7638,1.7647,1.7702,1.772,1.7759,1.7776,1.7799,1.782,1.7868,1.7897,1.7912,1.7937,1.7974,1.8007,1.8013,1.8026,1.8035,1.804,1.7992,1.7986,1.798,1.797,1.8038,1.8038,1.809,1.809,1.8091]},{"header":{"parameterUnit":"m.s-1","parameterCategory":1,"la1":30.2991,"la2":30.254,"lo1":-89.0895,"lo2":-89.0444,"dy":0.0017,"dx":0.0017,"nx":28,"ny":28,"refTime":"2026-01-09T09:00:00:Z","depth":0,"parameterNumber":3,"parameterNumberName":"V-component_of_WINDS"},"data":[0,0,0,0,0,0,0,0,0,0,0,0,0,0,0,0,0,0,0,0,0,0,0,0,0,0,0,0,0,0,0,0,0,0,0,0,0,0,0,0,0,0,0,0,0,0,0,0,0,0,0,0,0,0,0,0,0,0,-5.8185,-5.8186,0,-5.828,-5.8281,-5.8282,-5.8275,-5.8274,-5.8272,-5.8271,-5.8364,-5.8368,-5.8371,0,0,0,0,0,0,0,0,0,0,0,0,0,-5.7998,-5.8002,-5.8185,-5.8186,-5.8188,-5.828,-5.8281,-5.8282,-5.8275,-5.8274,-5.8272,-5.827,-5.8363,-5.8367,-5.8372,0,0,0,0,0,0,0,0,0,0,0,0,0,-5.8085,-5.8003,-5.8185,-5.8195,-5.8197,-5.8279,-5.8281,-5.8283,-5.8276,-5.8274,-5.8271,-5.827,-5.8361,-5.8367,-5.8372,-5.8449,0,0,-5.839,-5.8392,0,0,0,0,0,0,0,0,-5.808,-5.8092,-5.8193,-5.8195,-5.8197,-5.8264,-5.8249,-5.8338,-5.8276,-5.8246,-5.8271,-5.8268,-5.8332,-5.834,-5.8362,-5.8454,-5.8458,-5.839,-5.8394,-5.8396,-5.8398,0,0,0,0,0,0,0,-5.8074,-5.8087,-5.8222,-5.8194,-5.8197,-5.8195,-5.8205,-5.8266,-5.8299,-5.8248,-5.8248,-5.8259,-5.8333,-5.8357,-5.8364,-5.8459,-5.839,-5.8395,-5.8399,-5.8401,-5.8623,-5.8626,0,0,0,0,0,0,-5.8066,-5.8082,-5.8219,-5.8225,-5.8132,-5.82,-5.8211,-5.8244,-5.8299,-5.8305,-5.8261,-5.8259,-5.8348,-5.8358,-5.8368,-5.8464,-5.8396,-5.8401,-5.8405,-5.8621,-5.8624,-5.8627,0,0,0,0,0,0,-5.8062,-5.8078,-5.8216,-5.8154,-5.8171,-5.8206,-5.8243,-5.8247,-5.8271,-5.8309,-5.8314,-5.828,-5.8347,-5.836,-5.843,-5.8467,-5.8404,-5.8409,-5.8618,-5.8622,-5.8625,-5.8656,0,0,0,0,0,0,-5.8056,-5.8077,-5.8106,-5.8155,-5.8175,-5.8277,-5.8245,-5.8251,-5.8281,-5.8279,-5.8327,-5.8333,-5.8346,-5.8422,-5.8436,-5.8474,-5.8413,-5.8615,-5.862,-5.8624,-5.8652,-5.8661,-5.8668,0,0,0,0,0,-5.805,-5.8109,-5.8107,-5.8124,-5.8212,-5.8279,-5.829,-5.8305,-5.8284,-5.8315,-5.8339,-5.8332,-5.8461,-5.8429,-5.8445,-5.8485,-5.8612,-5.8618,-5.8624,-5.8649,-5.8659,-5.8668,0,0,0,0,0,0,-5.806,-5.8115,-5.8114,-5.8191,-5.8231,-5.8278,-5.8316,-5.8315,-5.836,-5.8356,-5.8372,-5.8383,-5.8455,-5.8477,-5.844,-5.8565,-5.8534,-5.8543,-5.8548,-5.8558,-5.8566,-5.8559,-5.8418,0,0,0,0,0,-5.8072,-5.8123,-5.8167,-5.8231,-5.8251,-5.8281,-5.831,-5.8319,-5.836,-5.8376,-5.8406,-5.8445,-5.8496,-5.8528,-5.8576,-5.8656,-5.8668,-5.8692,-5.87,-5.8706,-5.8713,-5.8761,-5.8773,-5.8645,-5.8645,-5.8645,0,0,-5.8096,-5.8132,-5.8162,-5.8234,-5.8266,-5.8319,-5.8294,-5.8349,-5.8389,-5.8384,-5.8454,-5.8478,-5.8523,-5.86,-5.8635,-5.8621,-5.8752,-5.8713,-5.8718,-5.8722,-5.8768,-5.8781,-5.8791,-5.8649,-5.8648,-5.8648,0,0,-5.8166,-5.8198,-5.8257,-5.829,-5.834,-5.836,-5.8374,-5.8423,-5.8439,-5.851,-5.8509,-5.8556,-5.8641,-5.8675,-5.8703,-5.8793,-5.8789,-5.8808,-5.8849,-5.8896,-5.8906,-5.8915,-5.8949,-5.8961,-5.8816,-5.8816,-5.8816,0,-5.8189,-5.8269,-5.8286,-5.8344,-5.8376,-5.8378,-5.8438,-5.8469,-5.8531,-5.8554,-5.8538,-5.8648,-5.8678,-5.8765,-5.8788,-5.881,-5.8828,-5.8802,-5.8903,-5.8912,-5.8921,-5.8954,-5.8967,-5.8818,-5.8818,-5.8817,-5.8817,0,-5.8296,-5.8351,-5.8392,-5.8456,-5.8493,-5.8551,-5.8579,-5.8614,-5.8621,-5.8643,-5.8718,-5.8755,-5.8813,-5.8834,-5.8839,-5.8923,-5.8913,-5.89,-5.8869,-5.8935,-5.8967,-5.8979,-5.8821,-5.882,-5.8819,-5.8819,0,0,-5.8371,-5.8449,-5.8463,-5.8494,-5.8552,-5.8595,-5.8655,-5.8714,-5.8745,-5.8789,-5.8841,-5.8916,-5.8906,-5.8938,-5.8948,-5.8989,-5.9061,-5.8971,-5.8972,-5.8988,-5.9159,-5.917,-5.9184,-5.906,-5.9062,-5.9064,-5.9156,0,-5.8449,-5.8556,-5.8577,-5.867,-5.8723,-5.8728,-5.8781,-5.8822,-5.8846,-5.8894,-5.892,-5.8974,-5.8955,-5.8975,-5.9016,-5.9044,-5.9096,-5.9037,-5.9108,-5.9111,-5.9097,-5.92,-5.921,-5.9295,-5.9168,-5.9171,-5.9172,0,-5.8553,-5.8604,-5.8703,-5.8759,-5.8782,-5.8828,-5.8886,-5.8933,-5.8981,-5.8996,-5.9035,-5.9042,-5.9106,-5.9073,-5.9162,-5.9122,-5.9153,-5.9172,-5.9176,-5.9183,-5.9145,-5.9211,-5.9322,-5.9336,-5.9191,-5.919,-5.9188,0,-5.8601,-5.8694,-5.8767,-5.8793,-5.8858,-5.8892,-5.8921,-5.8967,-5.9003,-5.9054,-5.9077,-5.9134,-5.9165,-5.9209,-5.9232,-5.9206,-5.9321,-5.9289,-5.9336,-5.9335,-5.9359,-5.9357,-5.9478,-5.9378,-5.9377,-5.9377,-5.9377,0,-5.8686,-5.8747,-5.879,-5.8835,-5.8905,-5.8928,-5.8997,-5.9025,-5.9068,-5.9119,-5.9126,-5.9173,-5.92,-5.9253,-5.9271,-5.9344,-5.9357,-5.9372,-5.9376,-5.9372,-5.937,-5.9392,-5.9387,-5.9381,-5.938,-5.9379,-5.9379,0,-5.875,-5.8781,-5.8862,-5.8919,-5.8936,-5.8985,-5.9034,-5.9079,-5.9104,-5.9169,-5.9185,-5.9225,-5.9287,-5.9315,-5.9391,-5.9403,-5.9488,-5.9487,-5.9472,-5.9474,-5.9519,-5.9515,-5.9658,-5.968,-5.9564,-5.9565,-5.9566,0,-5.8802,-5.885,-5.8915,-5.8951,-5.8981,-5.9038,-5.9076,-5.9103,-5.9142,-5.9204,-5.9242,-5.9305,-5.9357,-5.9457,-5.9492,-5.9551,-5.9553,-5.96,-5.9562,-5.9557,-5.9556,-5.9553,-5.956,-5.9606,-5.9607,-5.9608,-5.9609,0,-5.8892,-5.8907,-5.8961,-5.9024,-5.9069,-5.9119,-5.9167,-5.9196,-5.923,-5.9274,-5.934,-5.938,-5.9461,-5.9524,-5.9587,-5.9617,-5.962,-5.9621,-5.9635,-5.9631,-5.9622,-5.963,-5.9492,-5.9617,-5.9616,-5.9616,-5.9615,-5.9615,-5.8953,-5.8998,-5.9052,-5.9114,-5.9154,-5.92,-5.9247,-5.928,-5.9335,-5.9404,-5.9417,-5.9487,-5.9539,-5.9624,-5.9657,-5.9713,-5.9702,-5.9721,-5.9727,-5.9732,-5.9736,-5.9613,-5.9724,-5.9724,-5.9724,-5.9724,-5.9723,0,-5.9045,-5.9081,-5.9138,-5.9208,-5.9258,-5.9259,-5.9314,-5.9355,-5.9418,-5.9467,-5.952,-5.9597,-5.966,-5.9703,-5.9767,-5.9804,-5.9808,-5.9821,-5.9818,-5.9826,-5.9741,-5.9723,-5.9817,-5.9817,-5.9817,-5.9817,-5.9817,-5.9817,-5.9098,-5.9175,-5.9197,-5.9295,-5.9331,-5.9402,-5.9434,-5.9478,-5.9517,-5.9604,-5.9658,-5.9686,-5.9734,-5.9803,-5.9862,-5.9873,-5.9897,-5.9911,-5.9921,-5.9841,-5.9831,-5.9822,-5.9805,-5.9915,-5.9916,-6.0002,-6.0003,-6.0004]}]]